Theta_e
311 314 315 316 315 315 313 314 314 315 314 313 314 314 314 313 313 313 313 313 314 313 312 311 312 312 312 313 313 312 312 312 312 312 311 311 312 313 314 314 314 315 314 312
312 314 315 313 312 312 313 314 314 315 314 311 313 313 313 314 313 314 313 313 313 312 311 310 310 311 311 312 312 313 313 311 311 311 311 310 311 311 312 313 314 315 315 313
315 316 312 311 313 313 313 314 315 315 313 312 312 316 315 315 312 313 311 311 311 310 310 309 310 311 311 311 311 311 311 310 310 309 308 308 309 309 310 311 312 313 314 314
312 310 311 311 312 313 314 314 313 312 312 318 312 319 318 317 315 313 313 312 311 309 308 305 304 306 307 308 308 308 309 309 308 308 306 306 307 307 308 309 310 311 312 314
314 311 310 312 313 311 314 310 310 310 312 312 315 314 319 313 314 314 313 310 309 306 304 303 304 304 304 306 307 309 308 307 306 305 305 305 305 305 304 305 306 307 309 311
312 306 309 312 309 309 308 311 310 310 312 317 317 315 317 315 314 313 310 307 304 304 303 302 302 304 306 307 306 305 305 305 304 303 303 303 303 303 303 304 304 304 305 306
314 310 308 307 310 308 309 312 320 321 320 320 313 313 316 315 312 308 308 305 303 302 302 302 303 302 302 303 304 305 304 303 303 303 302 302 302 301 302 302 302 302 303 304
318 320 311 308 313 318 312 314 319 320 321 319 310 315 316 313 307 305 304 303 301 301 301 302 303 302 301 300 301 301 302 302 302 303 303 301 301 301 301 301 301 301 302 302
319 319 308 306 307 311 312 313 313 315 317 317 316 316 316 313 307 306 303 301 299 298 298 298 298 301 301 300 300 300 300 301 301 301 301 302 302 302 301 301 300 301 300 300
313 317 315 312 306 307 310 311 313 312 315 318 315 315 316 312 309 305 302 299 297 296 296 296 296 296 296 298 298 298 298 297 297 300 300 300 301 301 302 302 301 300 300 300
311 315 316 311 313 313 311 309 309 310 312 317 318 316 312 311 305 303 299 296 295 295 295 295 295 296 296 294 295 296 296 295 296 296 297 299 300 299 301 301 302 302 300 299
314 313 316 314 313 309 309 312 311 313 315 313 313 315 306 302 300 297 295 294 294 294 293 294 294 293 293 292 292 292 292 292 291 291 294 294 296 298 297 298 300 301 302 302
313 314 316 314 313 310 313 314 313 313 312 317 318 316 305 300 298 298 296 294 293 291 290 292 293 290 290 289 289 289 289 289 289 289 289 289 292 292 296 297 295 296 300 300
309 311 313 313 313 312 314 313 309 310 312 313 313 313 311 308 302 297 294 294 293 290 290 290 291 290 289 289 288 288 288 288 288 288 288 288 288 288 289 290 294 295 295 296
308 311 309 309 309 309 309 308 307 307 307 307 307 307 306 306 301 294 291 292 293 289 289 289 289 291 289 288 287 287 287 287 287 286 286 286 286 287 287 287 287 289 291 295
305 306 305 305 305 306 306 306 305 304 304 304 303 303 302 294 292 292 290 291 292 289 289 288 288 289 289 288 286 286 286 286 285 286 286 286 286 286 286 286 286 286 287 288
302 303 303 304 303 303 303 302 301 301 302 302 301 300 293 292 292 292 290 290 291 289 288 288 288 288 289 288 286 286 286 285 285 285 285 285 285 285 285 285 285 286 285 285
299 300 302 302 301 300 300 299 299 299 299 296 294 292 293 291 290 291 290 290 290 289 288 288 288 288 288 287 286 286 286 286 285 285 284 285 285 285 285 285 285 285 285 285
297 298 299 299 299 299 298 297 297 297 298 295 293 291 290 290 291 291 290 290 290 289 288 288 288 287 287 286 285 285 285 285 284 284 284 284 284 284 284 285 285 285 285 285
293 296 296 295 296 295 295 292 293 292 294 293 290 290 290 290 290 291 290 289 289 288 288 288 288 287 286 286 285 284 283 282 282 281 281 281 282 283 283 283 284 284 284 284
291 292 295 296 296 296 294 291 292 293 293 292 290 290 290 290 290 289 289 289 288 289 289 288 286 285 285 284 281 281 281 281 279 279 279 278 278 278 279 280 282 282 283 283
291 292 291 288 291 292 290 290 291 292 290 290 290 289 289 289 289 289 289 289 289 288 287 286 284 283 283 282 279 280 280 278 277 276 276 275 275 275 274 274 276 277 278 280
291 291 292 290 291 291 290 291 290 290 290 290 290 290 289 289 288 288 288 288 287 285 284 282 280 280 282 281 277 275 276 274 274 273 273 272 271 271 271 270 271 271 273 274
291 291 291 291 291 291 290 290 290 290 290 289 289 289 288 288 287 287 286 285 284 282 281 279 279 279 280 278 276 274 274 272 270 269 269 268 267 267 267 267 267 268 269 271
291 290 290 291 291 290 290 290 290 290 289 289 288 288 287 286 285 284 283 282 280 279 278 277 275 276 276 275 273 272 270 268 266 265 264 264 264 264 264 265 265 266 267 268
291 291 291 291 291 290 290 290 290 289 288 288 288 287 286 284 283 282 280 279 278 277 276 276 275 274 274 272 271 270 267 265 263 263 263 263 263 263 263 263 264 265 266 268
Wind_Speed
5 7 12 17 18 19 12 15 19 23 22 17 20 20 20 29 32 34 34 26 20 19 17 16 18 16 13 10 11 16 19 21 28 33 38 45 52 54 55 56 55 53 52 50
4 11 19 4 6 11 14 15 21 18 17 4 16 20 24 19 20 25 22 20 16 15 15 20 25 22 18 13 14 16 17 19 25 28 32 37 43 50 50 55 58 57 55 53
17 10 5 8 12 14 13 15 17 18 15 14 13 14 6 10 10 11 9 9 5 14 20 24 27 27 25 23 18 16 18 19 20 23 27 31 38 40 45 49 51 54 55 55
8 4 6 5 12 12 14 11 16 12 7 11 9 14 9 9 13 4 10 13 14 19 20 22 25 29 30 27 23 19 16 15 15 20 23 27 30 35 38 41 45 50 51 53
3 5 5 6 8 8 6 2 2 2 7 10 4 7 4 4 5 3 1 13 18 18 21 23 26 28 32 32 29 24 19 15 13 11 15 22 24 25 26 31 34 36 41 52
12 2 4 4 2 4 2 2 1 1 3 9 8 7 6 0 1 2 16 15 16 17 19 23 26 29 34 33 31 29 25 22 18 14 13 14 18 21 26 29 31 31 32 38
4 5 2 3 6 3 4 4 8 8 7 14 3 6 12 11 6 7 11 14 17 19 22 26 31 33 33 32 29 29 30 28 23 18 15 12 13 17 21 22 25 28 29 31
10 17 7 7 9 10 8 7 6 10 16 19 5 12 12 5 14 14 17 16 15 21 23 26 27 28 28 30 31 29 28 28 29 26 21 17 13 12 16 19 21 23 26 28
12 19 2 3 0 3 5 7 4 11 16 12 18 25 19 8 9 11 13 14 18 18 18 20 22 22 24 26 28 29 30 28 28 28 27 23 18 15 16 15 18 22 23 26
4 13 3 1 2 7 8 7 8 6 9 21 16 22 15 9 8 6 9 12 13 13 16 17 18 20 23 23 25 25 25 26 26 25 26 27 27 23 17 16 18 19 20 23
6 7 20 2 8 17 9 7 8 7 8 10 14 13 11 5 7 7 8 10 12 14 16 17 17 18 21 23 23 24 26 28 26 24 24 23 25 26 25 21 18 19 22 22
13 6 10 26 18 4 6 16 17 11 10 11 14 18 5 10 7 4 5 3 5 9 13 12 13 16 17 20 22 23 25 27 29 29 26 24 23 23 25 26 24 22 20 23
1 4 7 9 8 2 5 6 14 8 3 12 10 3 5 11 7 4 4 1 2 6 9 10 12 16 17 18 20 23 25 26 26 27 29 29 26 24 22 25 28 26 25 25
3 5 13 16 16 7 6 4 6 8 7 10 11 16 15 12 1 1 1 2 1 3 7 10 12 15 16 18 22 26 27 29 31 30 28 31 31 31 30 26 22 25 27 27
3 7 13 17 19 19 19 20 23 22 21 14 22 21 24 20 9 3 3 4 3 7 10 10 11 11 13 16 20 21 23 27 30 32 33 32 31 31 32 33 32 28 25 26
6 12 16 22 22 19 18 18 21 21 22 24 25 27 12 2 1 2 5 7 5 10 14 15 15 14 14 15 18 24 24 25 27 29 31 34 38 38 35 36 36 35 35 33
9 9 12 21 16 18 16 20 21 24 24 24 23 12 5 1 5 8 7 9 9 10 15 18 20 20 19 20 26 27 29 30 29 28 28 32 37 40 41 40 40 38 39 38
14 14 10 15 12 23 17 10 12 18 13 1 5 4 3 4 10 10 12 14 14 12 15 19 22 24 24 27 32 32 35 36 35 34 36 37 37 40 42 44 44 44 44 43
19 15 9 13 17 21 25 20 16 12 16 7 9 4 3 6 8 16 15 18 18 17 18 21 30 31 34 35 36 40 44 44 43 43 41 42 42 42 42 44 46 48 50 50
6 14 10 5 9 14 7 2 3 1 7 8 3 3 8 5 10 12 21 14 17 21 26 30 35 37 36 38 41 46 48 47 47 46 48 48 48 48 49 49 49 50 51 55
2 2 11 12 13 10 4 4 4 5 3 8 10 16 16 11 17 23 20 19 22 27 31 32 33 35 36 39 39 45 47 49 44 44 50 51 52 55 59 59 58 57 57 57
5 5 4 1 3 10 6 6 5 2 16 17 19 21 19 19 20 19 20 22 22 24 29 33 33 36 40 42 43 49 54 49 48 48 52 55 55 55 56 57 62 62 60 59
6 9 5 8 7 3 9 10 20 25 24 27 23 22 17 19 20 20 18 16 23 26 27 33 37 42 45 48 47 47 55 50 54 57 60 57 53 52 50 48 50 46 52 52
13 18 11 10 19 22 31 33 34 33 30 29 23 22 20 18 15 18 19 23 26 29 33 36 40 45 51 53 53 50 52 51 53 55 56 52 47 47 44 42 40 40 41 41
13 5 9 14 21 26 32 33 36 35 30 22 22 20 18 17 18 19 21 25 27 29 30 34 42 47 50 49 49 47 48 47 47 46 46 44 42 41 41 40 40 39 40 39
22 20 11 15 26 22 30 32 29 24 22 18 20 19 19 18 19 22 24 25 28 31 35 39 42 43 45 46 48 48 44 40 41 43 41 40 41 42 42 42 44 39 39 40
Wind_Direction
162 203 219 242 231 249 285 279 283 279 286 298 290 295 293 283 283 282 284 297 301 305 330 358 6 355 330 315 302 296 283 270 260 252 242 237 239 239 238 239 239 237 235 232
162 229 232 282 262 251 260 270 271 280 282 290 287 297 292 292 269 272 286 299 308 332 19 22 27 24 12 349 313 287 278 275 269 259 255 245 241 240 240 239 239 238 237 234
241 264 240 214 254 254 249 256 272 273 314 280 300 283 252 281 277 296 301 291 360 41 23 20 21 20 13 5 354 327 296 283 267 260 256 248 242 240 241 241 242 240 237 237
250 309 221 198 250 248 274 268 264 281 304 299 18 304 298 273 278 64 38 76 54 29 30 31 29 31 28 23 16 5 341 303 291 279 259 254 254 253 252 251 250 248 242 239
257 178 166 203 229 187 265 34 321 312 288 302 303 269 335 203 243 123 65 54 41 37 30 31 34 36 35 32 28 22 10 354 333 310 284 273 264 260 258 259 261 260 254 242
265 337 226 227 161 204 138 291 210 182 288 274 315 220 339 183 182 52 84 62 52 41 38 31 30 33 33 32 33 35 35 28 19 5 333 305 285 272 266 270 269 268 263 252
266 218 230 210 230 154 189 273 288 269 249 269 89 240 254 285 40 48 70 73 51 47 40 35 31 27 25 30 32 32 31 30 27 19 8 348 322 298 287 279 277 273 270 268
283 284 200 171 231 270 191 206 242 282 277 283 127 260 262 114 89 72 61 54 45 40 35 36 30 25 23 19 19 24 29 26 25 24 14 357 340 321 310 300 288 282 281 275
300 274 92 214 158 231 152 222 266 265 267 279 267 264 268 177 85 75 61 49 39 35 34 29 23 24 16 16 16 13 11 13 14 16 16 12 355 340 324 310 301 293 284 279
302 291 269 288 288 237 252 313 256 219 257 252 247 260 263 182 128 88 55 43 34 29 28 24 17 13 7 7 2 2 6 10 10 4 4 8 11 1 340 325 311 299 292 286
305 247 277 209 233 271 254 242 232 273 254 260 265 259 313 6 84 80 50 29 27 19 12 7 6 6 360 358 2 0 358 359 4 8 2 358 358 358 3 355 331 310 299 291
274 276 254 269 292 277 259 259 242 242 242 232 252 252 85 106 105 134 135 77 45 29 8 4 6 3 0 356 355 357 359 357 358 358 355 357 354 351 352 351 350 344 319 298
56 231 293 278 252 162 218 285 265 290 296 246 255 262 157 116 128 165 176 187 55 39 20 7 6 5 360 357 355 353 353 353 353 353 351 348 348 348 345 342 342 341 335 333
347 254 249 262 278 326 268 239 286 283 276 303 266 274 242 236 13 324 113 152 345 21 18 10 359 353 350 347 344 341 342 343 343 345 344 343 343 344 343 341 333 330 332 331
218 264 274 276 278 275 270 271 274 274 274 265 281 281 282 287 301 246 329 336 317 353 360 351 339 324 333 336 336 332 330 332 334 335 336 336 334 334 334 333 334 332 326 319
265 270 277 272 274 266 269 263 265 270 272 268 266 267 289 17 53 291 329 306 292 341 340 337 331 324 310 314 319 325 326 326 326 322 322 324 325 327 329 328 326 326 326 324
270 272 268 269 277 290 267 249 259 266 265 268 273 295 80 53 290 285 282 289 266 317 329 329 325 320 313 310 319 321 319 316 314 311 310 314 316 317 318 320 321 322 322 321
249 255 258 271 274 260 272 290 270 271 286 16 121 141 180 273 299 279 273 285 263 284 312 323 321 317 315 310 313 315 316 313 308 305 302 304 306 306 308 310 312 313 313 314
233 255 262 257 258 278 290 286 264 245 272 176 152 170 264 291 291 292 283 285 268 270 296 315 322 316 315 315 315 315 314 313 310 306 304 303 302 299 299 300 302 304 305 305
230 233 244 237 261 268 301 93 73 97 272 183 189 281 293 285 286 299 313 289 285 270 289 305 312 311 310 311 312 311 311 311 309 309 306 304 301 298 296 294 293 294 295 298
264 212 235 245 258 267 237 140 138 229 305 190 265 279 279 263 272 291 295 285 284 284 287 299 308 308 308 310 310 308 308 306 307 304 302 300 298 298 296 296 293 291 290 289
254 254 213 196 250 269 135 124 213 255 297 294 288 285 285 279 283 283 291 294 291 287 295 303 305 304 305 307 308 307 305 307 304 300 297 296 295 293 293 293 292 291 289 287
254 221 258 212 251 278 196 248 264 285 284 289 290 294 284 279 277 288 291 286 289 297 300 303 305 306 307 309 310 306 305 303 300 298 296 295 293 291 290 288 288 286 287 286
258 256 247 268 257 260 266 270 276 282 281 287 287 291 286 276 281 287 290 292 298 302 306 308 309 309 309 310 310 307 305 305 302 299 298 297 295 293 290 286 282 281 279 278
246 225 236 253 262 275 269 267 268 273 282 278 279 278 277 279 287 291 294 300 304 304 307 309 312 312 311 313 312 313 311 311 308 305 301 299 296 294 292 286 283 279 275 272
240 239 242 254 265 259 268 272 277 276 271 262 271 271 275 283 289 296 300 303 304 308 312 314 314 315 318 318 315 317 319 317 312 304 301 298 296 294 292 290 288 284 278 275